CW6747 Weather Reports


time (UTC)temp
C
wind
direction
speed
KPH
gust
KPH
rain 1hr
cm
rain 24hr
cm
rain mn
cm
humidity
%
barometer
mb
20260503223028 12 65 16.1 29.0 0.00 0.00 0.00 39 1011.6
20260503221534 12 34 14.5 25.7 0.00 0.00 0.00 41 1011.7
20260503220028 13 49 19.3 30.6 0.00 0.00 0.00 36 1011.7
20260503214526 13 96 19.3 33.8 0.00 0.00 0.00 38 1011.7
20260503213033 12 67 9.7 32.2 0.00 0.00 0.00 39 1011.6
20260503211530 12 92 16.1 27.4 0.00 0.00 0.00 37 1011.5
20260503210027 13 106 17.7 35.4 0.00 0.00 0.00 37 1011.6
20260503204530 12 39 14.5 32.2 0.00 0.00 0.00 38 1011.6
20260503203031 13 46 14.5 30.6 0.00 0.00 0.00 41 1011.6
20260503201527 13 92 17.7 37.0 0.00 0.00 0.00 38 1011.8
20260503200029 13 54 16.1 29.0 0.00 0.00 0.00 38 1011.9
20260503194530 12 65 14.5 29.0 0.00 0.00 0.00 40 1012.1
20260503193030 12 86 19.3 32.2 0.00 0.00 0.00 39 1012.2
20260503191534 12 71 14.5 25.7 0.00 0.00 0.00 42 1012.4
20260503190030 12 11 17.7 32.2 0.00 0.00 0.00 41 1012.5
20260503184528 12 40 19.3 30.6 0.00 0.00 0.00 41 1012.7
20260503183030 12 79 19.3 30.6 0.00 0.00 0.00 42 1012.8
20260503181530 11 52 6.4 29.0 0.00 0.00 0.00 42 1012.8
20260503180028 11 78 16.1 30.6 0.00 0.00 0.00 42 1013.1
20260503174527 11 66 17.7 30.6 0.00 0.00 0.00 46 1013.1
20260503173030 11 51 19.3 33.8 0.00 0.00 0.00 40 1013.1
20260503171526 11 38 16.1 35.4 0.00 0.00 0.00 44 1013.1
20260503081528 2 68 3.2 12.9 0.00 0.00 0.00 68 1013.1
20260503071526 2 130 4.8 19.3 0.00 0.00 0.00 66 1012.9
20260503054534 3 0 0.0 4.8 0.00 0.08 0.00 65 1012.9
20260503053033 3 96 0.0 9.7 0.00 0.08 0.00 65 1013.1
20260503051527 3 61 1.6 4.8 0.00 0.08 0.00 66 1013.1
20260503050037 3 88 1.6 6.4 0.00 0.08 0.00 66 1013.2
20260503044528 3 42 0.0 3.2 0.00 0.13 0.00 67 1013.2
20260503043031 4 0 1.6 4.8 0.00 0.13 0.00 67 1013.2
20260503041537 4 0 0.0 4.8 0.00 0.13 0.00 64 1013.3
20260503040029 5 47 3.2 9.7 0.00 0.13 0.00 63 1013.4
20260503034531 5 67 3.2 14.5 0.00 0.13 0.13 62 1013.4
20260503033033 5 74 6.4 16.1 0.00 0.13 0.13 63 1013.5
20260503031531 5 30 3.2 9.7 0.00 0.13 0.13 67 1013.5
20260503030036 5 43 3.2 6.4 0.00 0.13 0.13 70 1013.5
20260503024530 5 73 3.2 8.0 0.00 0.13 0.13 72 1013.6
20260503023031 5 78 4.8 9.7 0.00 0.13 0.13 71 1013.6
20260503021529 5 56 6.4 14.5 0.00 0.13 0.13 71 1013.6
20260503020030 5 32 4.8 12.9 0.00 0.13 0.13 72 1013.5
20260503014530 5 32 6.4 14.5 0.00 0.20 0.13 72 1013.4
20260503013032 5 63 6.4 14.5 0.00 0.20 0.13 73 1013.4
20260503011530 5 42 8.0 17.7 0.00 0.20 0.13 73 1013.3
20260503010032 5 55 6.4 14.5 0.00 0.20 0.13 72 1013.3
20260503004528 5 67 3.2 14.5 0.00 0.25 0.13 71 1013.2
20260503003028 5 86 3.2 11.3 0.00 0.25 0.13 70 1012.9
20260503001528 5 89 4.8 14.5 0.00 0.25 0.13 69 1012.8
20260503000029 5 96 3.2 9.7 0.00 0.25 0.13 70 1012.8
20260502234532 6 66 4.8 11.3 0.00 0.28 0.13 70 1012.8
20260502233029 6 80 3.2 11.3 0.00 0.28 0.13 69 1012.7
20260502231527 6 0 3.2 12.9 0.00 0.28 0.13 72 1012.7
20260502230034 6 83 3.2 6.4 0.00 0.28 0.13 70 1012.6
20260502224532 6 52 4.8 11.3 0.00 0.28 0.13 69 1012.5